TimeEST,TemperatureF,Dew PointF,Humidity,Sea Level PressureIn,VisibilityMPH,Wind Direction,Wind SpeedMPH,Gust SpeedMPH,PrecipitationIn,Events,Conditions,WindDirDegrees,DateUTC
12:02 AM,-4.0,-14.8,60,30.18,10.0,NW,10.4,-,N/A,,Mostly Cloudy,310,2013-01-23 05:02:00
12:13 AM,-5.8,-14.8,65,30.18,10.0,NW,10.4,-,N/A,,Scattered Clouds,320,2013-01-23 05:13:00
1:53 AM,-7.1,-18.0,59,30.24,10.0,WNW,8.1,-,N/A,,Partly Cloudy,300,2013-01-23 06:53:00
2:53 AM,-9.0,-18.0,65,30.25,10.0,NW,12.7,-,N/A,,Clear,310,2013-01-23 07:53:00
3:53 AM,-9.9,-20.0,61,30.25,10.0,WNW,8.1,-,N/A,,Clear,290,2013-01-23 08:53:00
4:53 AM,-11.0,-20.9,62,30.26,10.0,WNW,10.4,-,N/A,,Clear,290,2013-01-23 09:53:00
5:53 AM,-13.0,-22.0,64,30.28,10.0,NW,8.1,-,N/A,,Clear,310,2013-01-23 10:53:00
6:53 AM,-13.0,-22.0,64,30.30,10.0,WNW,6.9,-,N/A,,Partly Cloudy,300,2013-01-23 11:53:00
7:14 AM,-13.0,-22.0,64,30.26,10.0,West,6.9,-,N/A,,Mostly Cloudy,280,2013-01-23 12:14:00
7:53 AM,-13.0,-22.0,64,30.31,9.0,WNW,8.1,-,N/A,,Mostly Cloudy,290,2013-01-23 12:53:00
8:13 AM,-13.0,-20.2,70,30.28,10.0,West,6.9,-,N/A,,Scattered Clouds,280,2013-01-23 13:13:00
8:27 AM,-13.0,-20.2,70,30.28,9.0,West,5.8,-,N/A,,Mostly Cloudy,260,2013-01-23 13:27:00
8:36 AM,-13.0,-20.2,70,30.28,8.0,West,8.1,-,N/A,,Scattered Clouds,260,2013-01-23 13:36:00
8:53 AM,-13.0,-20.9,68,30.32,10.0,West,8.1,-,N/A,,Partly Cloudy,280,2013-01-23 13:53:00
9:33 AM,-11.2,-20.2,64,30.29,10.0,West,5.8,-,N/A,,Partly Cloudy,270,2013-01-23 14:33:00
9:53 AM,-11.9,-20.0,67,30.34,10.0,West,6.9,-,N/A,,Partly Cloudy,260,2013-01-23 14:53:00
10:53 AM,-9.9,-20.0,61,30.34,10.0,West,8.1,-,N/A,,Clear,260,2013-01-23 15:53:00
11:53 AM,-9.0,-18.9,62,30.32,10.0,Calm,Calm,-,N/A,,Clear,0,2013-01-23 16:53:00
12:53 PM,-8.0,-18.9,59,30.29,10.0,West,9.2,-,N/A,,Clear,260,2013-01-23 17:53:00
1:53 PM,-6.0,-18.9,54,30.27,10.0,West,8.1,-,N/A,,Clear,270,2013-01-23 18:53:00
2:53 PM,-5.1,-18.0,54,30.28,10.0,West,9.2,-,N/A,,Clear,270,2013-01-23 19:53:00
3:53 PM,-4.0,-18.0,51,30.27,10.0,West,6.9,-,N/A,,Clear,260,2013-01-23 20:53:00
4:53 PM,-4.0,-18.0,51,30.27,10.0,West,8.1,-,N/A,,Clear,260,2013-01-23 21:53:00
5:53 PM,-5.1,-17.0,57,30.27,10.0,West,3.5,-,N/A,,Clear,270,2013-01-23 22:53:00
6:53 PM,-6.0,-17.0,59,30.28,10.0,Calm,Calm,-,N/A,,Clear,0,2013-01-23 23:53:00
7:53 PM,-8.0,-17.0,65,30.27,10.0,Calm,Calm,-,N/A,,Clear,0,2013-01-24 00:53:00
8:53 PM,-9.0,-15.0,75,30.27,10.0,Calm,Calm,-,N/A,,Clear,0,2013-01-24 01:53:00
9:53 PM,-9.4,-14.8,77,30.23,10.0,Calm,Calm,-,N/A,,Clear,0,2013-01-24 02:53:00
10:53 PM,-9.0,-15.0,75,30.27,10.0,Calm,Calm,-,N/A,,Clear,0,2013-01-24 03:53:00
11:53 PM,-9.9,-15.0,78,30.27,10.0,Calm,Calm,-,N/A,,Clear,0,2013-01-24 04:53:00